Location: Spring Creek
(38.2870°N, 100.2160°W)
Time: 06:23:38
(UTC+00:00)

Meteor 2-15 - Pass Details

Date: 03 October 2021
Orbit: 937 x 954 km, 82.5° (Epoch: 24 October)

Event Time Altitude Azimuth Distance (km) Brightness Sun altitude
Exits shadow 09:47:32 13° 342° (NNW) 2,491 6.7 -33.6°
Drops below altitude 10° 09:48:09 10° 346° (NNW) 2,679 6.9 -33.5°
Sets 09:51:01 0° 357° (N) 3,631 7.7 -33.0°
